TimeCST,TemperatureF,Dew PointF,Humidity,Sea Level PressureIn,VisibilityMPH,Wind Direction,Wind SpeedMPH,Gust SpeedMPH,PrecipitationIn,Events,Conditions,WindDirDegrees,DateUTC
12:27 AM,30.2,26.6,86,29.54,8.0,SW,12.7,-,N/A,,Overcast,230,2013-01-16 06:27:00
12:43 AM,32.0,28.4,87,29.54,10.0,WSW,17.3,-,N/A,,Overcast,240,2013-01-16 06:43:00
12:53 AM,32.0,28.0,85,29.57,10.0,WSW,17.3,-,N/A,,Overcast,240,2013-01-16 06:53:00
1:00 AM,33.8,28.4,81,29.53,10.0,WSW,19.6,-,N/A,,Overcast,240,2013-01-16 07:00:00
1:53 AM,35.1,30.9,85,29.59,10.0,West,15.0,-,0.00,,Overcast,260,2013-01-16 07:53:00
2:12 AM,35.6,30.2,81,29.55,10.0,West,13.8,-,N/A,Rain,Light Rain,260,2013-01-16 08:12:00
2:53 AM,36.0,30.9,82,29.64,10.0,NW,17.3,-,0.02,Rain,Light Rain,320,2013-01-16 08:53:00
3:17 AM,33.8,28.4,81,29.61,9.0,North,20.7,26.5,0.00,,Overcast,10,2013-01-16 09:17:00
3:43 AM,30.2,26.6,86,29.64,10.0,North,13.8,-,0.00,,Overcast,360,2013-01-16 09:43:00
3:53 AM,30.0,26.1,85,29.68,10.0,North,11.5,-,0.00,,Overcast,10,2013-01-16 09:53:00
4:06 AM,30.2,24.8,80,29.64,10.0,North,16.1,-,N/A,,Overcast,10,2013-01-16 10:06:00
4:53 AM,26.1,19.0,75,29.72,10.0,North,21.9,-,N/A,,Overcast,360,2013-01-16 10:53:00
5:53 AM,19.9,14.0,78,29.76,10.0,North,17.3,23.0,N/A,,Overcast,10,2013-01-16 11:53:00
6:53 AM,18.0,12.0,78,29.79,10.0,North,10.4,-,N/A,,Overcast,10,2013-01-16 12:53:00
7:43 AM,17.6,10.4,73,29.78,10.0,NNW,18.4,-,N/A,,Overcast,340,2013-01-16 13:43:00
7:53 AM,16.0,10.0,77,29.83,10.0,North,13.8,-,N/A,,Overcast,360,2013-01-16 13:53:00
8:03 AM,15.8,10.4,79,29.79,10.0,North,17.3,-,N/A,,Overcast,350,2013-01-16 14:03:00
8:24 AM,15.8,10.4,79,29.79,10.0,North,17.3,-,N/A,,Overcast,350,2013-01-16 14:24:00
8:42 AM,15.8,10.4,79,29.81,2.0,North,17.3,-,0.00,Snow,Light Snow,350,2013-01-16 14:42:00
8:45 AM,15.8,10.4,79,29.81,1.8,North,16.1,-,0.00,Snow,Light Snow,350,2013-01-16 14:45:00
8:53 AM,16.0,10.0,77,29.86,1.2,North,15.0,-,0.00,Snow,Light Snow,350,2013-01-16 14:53:00
9:21 AM,15.8,8.6,73,29.84,2.0,North,17.3,-,0.01,Snow,Light Snow,350,2013-01-16 15:21:00
9:40 AM,15.8,8.6,73,29.85,1.2,North,18.4,-,0.01,Snow,Light Snow,350,2013-01-16 15:40:00
9:53 AM,14.0,8.1,77,29.93,1.2,North,23.0,-,0.01,Snow,Light Snow,350,2013-01-16 15:53:00
10:20 AM,14.0,8.6,79,29.88,1.0,North,15.0,-,0.00,Snow,Light Snow,350,2013-01-16 16:20:00
10:44 AM,14.0,6.8,73,29.90,2.0,North,17.3,-,0.00,Snow,Light Snow,350,2013-01-16 16:44:00
10:53 AM,14.0,6.1,71,29.96,5.0,North,17.3,-,0.00,,Overcast,350,2013-01-16 16:53:00
11:53 AM,12.9,1.0,59,30.00,10.0,North,20.7,25.3,0.00,,Overcast,350,2013-01-16 17:53:00
12:53 PM,10.0,-2.0,58,30.06,4.0,North,23.0,34.5,N/A,,Haze,360,2013-01-16 18:53:00
1:53 PM,8.6,-4.0,57,30.04,10.0,North,24.2,-,N/A,,Clear,350,2013-01-16 19:53:00
2:53 PM,9.0,-6.0,51,30.13,10.0,North,15.0,-,N/A,,Clear,350,2013-01-16 20:53:00
3:53 PM,6.1,-6.0,58,30.18,10.0,NNW,18.4,-,N/A,,Clear,340,2013-01-16 21:53:00
4:53 PM,3.9,-9.0,55,30.24,10.0,NNW,18.4,-,N/A,,Clear,340,2013-01-16 22:53:00
5:53 PM,1.9,-9.9,58,30.27,10.0,North,15.0,-,N/A,,Clear,350,2013-01-16 23:53:00
6:53 PM,-0.0,-9.9,63,30.32,10.0,NNW,11.5,-,N/A,,Clear,340,2013-01-17 00:53:00
7:53 PM,-0.9,-11.9,60,30.32,10.0,NNW,8.1,-,N/A,,Clear,340,2013-01-17 01:53:00
8:53 PM,-2.0,-14.1,57,30.36,10.0,NNW,9.2,-,N/A,,Clear,330,2013-01-17 02:53:00
9:53 PM,-4.0,-14.1,62,30.39,10.0,North,8.1,-,N/A,,Clear,350,2013-01-17 03:53:00
10:53 PM,-0.9,-13.0,57,30.38,10.0,North,5.8,-,N/A,,Overcast,10,2013-01-17 04:53:00
11:53 PM,-0.9,-13.0,57,30.37,10.0,ENE,3.5,-,N/A,,Overcast,70,2013-01-17 05:53:00